Regional Weather Roundup
Issued by NWS

Home | Current Version | Previous Version | Graphics & Text | Print | Product List | Glossary On
Versions: 1 2 3 4 5 6 7 8 9 10 11 12 13 14 15 16 17 18 19 20 21 22 23 24 25 26 27 28 29 30 31 32 33 34 35 36 37 38 39 40 41 42 43 44 45 46 47 48 49 50
515
ASUS43 KMKX 100521
RWRWI

WISCONSIN REGIONAL WEATHER ROUNDUP
NATIONAL WEATHER SERVICE MILWAUKEE/SULLIVAN WI
1100 PM CST TUE FEB 09 2016

NOTE: "FAIR" INDICATES FEW OR NO CLOUDS BELOW 12,000 FEET WITH NO
SIGNIFICANT WEATHER AND/OR OBSTRUCTIONS TO VISIBILITY.

WIZ001-002-006>008-014>016-023>028-100600-
NORTHWEST WISCONSIN

CITY           SKY/WX    TMP DP  RH WIND       PRES   REMARKS
SUPERIOR ARPT  CLOUDY     3  -5  69 N12       30.16S WCI -14
ASHLAND        FLURRIES   6  -1  73 N13       30.09S WCI -10
HAYWARD        LGT SNOW   4  -3  73 N5        30.06S WCI  -5
SIREN          CLEAR      3  -6  65 N7        30.12S WCI  -9
CUMBERLAND     CLEAR      3  -8  60 N12G17    30.07S WCI -13
RICE LAKE      CLEAR      4  -6  62 NW6       30.09S WCI  -6
CHETEK         CLEAR      3  -6  66 MISG      30.08R
LADYSMITH      LGT SNOW   7   1  75 NW10      30.04S WCI  -8
EAU CLAIRE     CLEAR      6  -7  54 NW9       30.08R WCI  -8
MENOMONIE      CLEAR      6  -6  57 NW7       30.10S WCI  -5
NEW RICHMOND   CLOUDY     4  -5  65 N10       30.12S WCI -11
OSCEOLA        CLEAR      7  -3  63 NW9       30.16S WCI  -7
$$

WIZ003>005-009-010-017-018-100600-
NORTH CENTRAL WISCONSIN

CITY           SKY/WX    TMP DP  RH WIND       PRES   REMARKS
MANITOWISH WTR CLOUDY     6   1  78 N12G17    29.94R WCI -10
ARBOR VITAE    CLOUDY     9   2  74 N13       29.93R WCI  -7
WOODRUFF       CLOUDY     9   2  74 N13       29.93R WCI  -7
RHINELANDER    LGT SNOW   7   0  73 N12G22    29.91S WCI  -8
EAGLE RIVER    LGT SNOW   7  -2  68 N16G22    29.90R WCI -11
LAND O LAKES   LGT SNOW   6   1  79 N9        29.91R WCI  -7
PHILLIPS       CLOUDY     5  -1  76 NW6       29.97R WCI  -5
TOMAHAWK       CLOUDY     7   1  76 NW10      29.94S WCI  -7
MEDFORD        CLOUDY     6  -1  71 N14       29.96R WCI -10
MERRILL        CLOUDY     9   1  68 NW8G20    29.95S WCI  -3
$$

WIZ029-030-035-036-043>047-100600-
CENTRAL WISCONSIN

CITY           SKY/WX    TMP DP  RH WIND       PRES   REMARKS
WAUSAU         CLOUDY    11   0  61 N18G28    29.94S WCI  -7
MOSINEE        CLOUDY    10   1  67 N15       29.96S WCI  -6
MARSHFIELD     CLOUDY    10  -2  58 N12       29.97R WCI  -5
STEVENS POINT  CLOUDY     9  -2  61 N13G20    29.97R WCI  -7
WAUPACA        CLOUDY    14   2  58 NW12      29.97S WCI   0
WAUTOMA        MOCLDY    11  -1  58 N9        29.99S WCI  -2
WISC RAPIDS    CLOUDY    10  -2  58 N14G23    30.00S WCI  -6
CAMP DOUGLAS   FLURRIES   7   3  85 NW7       30.02S WCI  -5
$$

WIZ011>013-019>022-031-037>040-048>050-100600-
NORTHEAST WISCONSIN

CITY           SKY/WX    TMP DP  RH WIND       PRES   REMARKS
ANTIGO         CLOUDY     8   1  74 N13       29.90S WCI  -8
SHAWANO        CLOUDY    15  -1  50 NW9       29.95S WCI   3
OCONTO         CLEAR     11  -1  58 NW8       29.93S WCI   0
STURGEON BAY   CLOUDY    12   0  57 NW17G23   29.91R WCI  -5
GREEN BAY      PTCLDY    12   1  61 NW12      29.93S WCI  -2
MANITOWOC      CLOUDY    13   5  70 NW16      29.91S WCI  -3
APPLETON       MOCLDY    12   0  57 NW14      29.91F WCI  -3
CLINTONVILLE   CLOUDY    14   0  52 NW8       29.95S WCI   3
OSHKOSH        PTCLDY    12   0  58 NW15      29.94S WCI  -4
$$

WIZ032>034-041-042-053>061-100600-
SOUTHWEST WISCONSIN

CITY           SKY/WX    TMP DP  RH WIND       PRES   REMARKS
LA CROSSE      PTCLDY     5  -5  63 NW9       30.09R WCI  -9
SPARTA         CLEAR     -7 -10  87 CALM      30.06S
VIROQUA        PTCLDY     5  -4  67 NW12      30.00S WCI -11
BOSCOBEL       CLEAR      5  -2  72 CALM      30.07S
PRAIRIE DU CHI CLEAR      9  -4  56 NW6       30.09R WCI  -1
PLATTEVILLE    CLEAR      6   0  73 NW6       30.01F WCI  -4
$$

WIZ056-057-062-063-064-067-068-100600-
SOUTH CENTRAL WISCONSIN

CITY           SKY/WX    TMP DP  RH WIND       PRES   REMARKS
REEDSBURG      CLOUDY     8   0  71 NW6       30.01S WCI  -2
BARABOO/DELLS  CLOUDY     9   0  65 NW7       29.99S WCI  -2
LONE ROCK      CLEAR      9  -2  61 NW8       30.04F WCI  -3
MINERAL POINT  CLEAR      9   0  66 NW10      29.99S WCI  -6
MADISON        CLOUDY    11   0  61 NW10      29.98S WCI  -3
MIDDLETON      CLOUDY    11   2  66 W8        29.99S WCI   0
WATERTOWN      CLOUDY    11   2  67 NW12      29.95S WCI  -3
MONROE         PTCLDY    10   1  67 NW9G16    29.97S WCI  -2
JANESVILLE     CLOUDY    14   3  62 NW10      29.97F WCI   1
$$

WIZ051-052-058>065-066-070>072-100600-
SOUTHEAST WISCONSIN

CITY           SKY/WX    TMP DP  RH WIND       PRES   REMARKS
MILWAUKEE      FLURRIES  15   8  73 NW13      29.93R WCI   1
WAUKESHA       PTCLDY    10   3  72 NW13      29.93S WCI  -5
MILWAUKEE/TIMM MOCLDY    14   5  67 NW10G16   29.93F WCI   1
RACINE         LGT SNOW  15   8  73 NW8G18    29.94R WCI   4
BURLINGTON     PTCLDY    11   2  68 NW12G21   29.94S WCI  -4
KENOSHA        CLOUDY    15   5  64 NW13      29.93R WCI   1
FOND DU LAC    CLOUDY    13   1  59 NW18      29.95R WCI  -4
SHEBOYGAN      MOCLDY    13   4  67 NW12      29.90F WCI  -1
WEST BEND      PTCLDY    12   3  67 CALM      29.91S
JUNEAU         CLOUDY    10   1  68 NW12G17   29.95S WCI  -5
$$

LSZ147-162-100600-
LAKE SUPERIOR

STATION/POSITION TIME  TEMP    WIND        PRES    WAVE
                       AIR SEA DIR/SP/G            HT/PER
                 (UTC) (F)     (DEG/KT/KT) (MB)    (FT/S)
DEVILS ISLAND    0500    6     360/ 18/ 22 1021.2R
PORT WING        0400    9     340/ 13/ 22 1020.3S
SAXON HARBOR     0400   11                 1017.9
$$

LMZ867-665-643>646-100600-
LAKE MICHIGAN

STATION/POSITION TIME  TEMP    WIND        PRES    WAVE
                       AIR SEA DIR/SP/G            HT/PER
                 (UTC) (F)     (DEG/KT/KT) (MB)    (FT/S)
CHAMBERS ISLAND  0400   14     300/ 15/ 22 1011.9F
ALGOMA LAKESHORE 0411          330/ 12/ 18   N/A
KEWAUNEE LAKESHO 0400   13     360/  9/ 15 1011.8F
SHEBOYGAN LAKESH 0500   14     300/ 15/ 20 1014.2F
PORT WASHINGTON  0440   15     300/  7/ 16 1014.2F
MILWAUKEE LAKESH 0410   16     300/  8/ 10   N/A
KENOSHA   LAKESH 0500   15     310/ 15/ 22 1013.5R
$$

TC  - TEMPERATURE IN CELSIUS
VSB - VISIBILITY IN STATUTE MILES
WCI - WIND CHILL INDEX
HX  - HEAT INDEX





USA.gov is the U.S. government's official web portal to all federal, state and local government web resources and services.